Location: Astronomy Club of Akron Observatory
(40.9700°N, 81.5606°W)
Time: 23:57:44
(UTC-05:00)

ATLAS 2AS CENTAUR R/B - Visible Passes

Search period start: 23 January 2017 00:00
Search period end: 02 February 2017 00:00
Orbit: 904 x 1308 km, 63.7° (Epoch: 22 January)

Date Brightness Start Highest point End Pass type
(mag) Time Alt. Az. Time Alt. Az. Time Alt. Az.
23 Jan 5.2 03:18:52 15° NNE 03:18:52 15° NNE 03:22:18 10° NE visible
23 Jan 4.4 05:06:19 15° NNW 05:11:59 32° NE 05:18:46 10° E visible
23 Jan 3.0 06:55:44 10° NW 07:03:46 74° WSW 07:11:11 10° SSE visible
24 Jan 5.5 02:35:41 10° NNE 02:35:41 10° NNE 02:35:56 10° NNE visible
24 Jan 4.7 04:23:08 19° N 04:26:32 25° NNE 04:32:43 10° E visible
24 Jan 3.2 06:10:49 10° NNW 06:18:58 77° NE 06:26:28 10° SE visible
25 Jan 4.9 03:40:01 19° NNE 03:40:55 19° NNE 03:46:22 10° ENE visible
25 Jan 3.6 05:27:29 16° NNW 05:33:58 54° NE 05:41:21 10° SE visible
25 Jan 5.0 21:07:08 10° SSW 21:07:44 13° SSW 21:07:44 13° SSW visible
26 Jan 5.3 02:56:59 15° NNE 02:56:59 15° NNE 02:59:49 10° NE visible
26 Jan 4.1 04:44:27 23° N 04:48:47 39° NE 04:55:51 10° ESE visible
26 Jan 3.1 06:32:22 10° NW 06:40:12 58° WSW 06:47:25 10° SSE visible
26 Jan 4.3 20:22:52 10° S 20:25:39 24° S 20:25:39 24° S visible
27 Jan 4.5 04:01:30 26° NNE 04:03:26 29° NE 04:09:59 10° E visible
27 Jan 2.9 05:48:58 17° NW 05:55:29 86° WSW 06:02:58 10° SSE visible
27 Jan 3.9 19:39:10 10° SSE 19:43:38 28° SE 19:43:38 28° SE visible
27 Jan 4.6 21:28:27 10° SW 21:31:10 25° SW 21:31:10 25° SW visible
28 Jan 4.9 03:18:40 22° NE 03:18:40 22° NE 03:23:49 10° ENE visible
28 Jan 3.2 05:06:09 29° NNW 05:10:36 67° NE 05:18:05 10° SE visible
28 Jan 3.8 06:54:29 10° NW 07:00:59 29° WSW 07:07:07 10° SSW visible
28 Jan 4.1 18:56:16 10° SE 19:01:13 19° ESE 19:01:36 19° E visible
28 Jan 3.3 20:43:31 10° SSW 20:49:09 56° SSW 20:49:09 56° SSW visible
29 Jan 5.4 02:35:56 13° NE 02:35:56 13° NE 02:37:21 10° ENE visible
29 Jan 3.8 04:23:25 39° N 04:25:32 47° NE 04:32:48 10° ESE visible
29 Jan 3.3 06:10:55 18° NW 06:16:34 45° WSW 06:23:30 10° S visible
29 Jan 4.6 18:15:55 10° ESE 18:17:02 10° E 18:18:11 10° E visible
29 Jan 2.9 19:59:00 10° SSW 20:06:23 62° ESE 20:07:07 59° E visible
29 Jan 4.6 21:50:47 10° WSW 21:54:39 27° W 21:54:39 27° W visible
30 Jan 4.3 03:40:51 34° NE 03:40:51 34° NE 03:47:09 10° ESE visible
30 Jan 2.9 05:28:21 35° NW 05:31:57 69° WSW 05:39:19 10° SSE visible
30 Jan 3.4 19:14:56 10° S 19:21:49 40° ESE 19:25:01 29° ENE visible
30 Jan 3.6 21:05:13 10° WSW 21:12:33 52° NW 21:12:33 52° NW visible
31 Jan 5.0 02:58:25 19° ENE 02:58:25 19° ENE 03:01:10 10° E visible
31 Jan 2.9 04:45:55 66° NNW 04:47:10 82° NE 04:54:40 10° SE visible
31 Jan 4.0 06:33:26 15° WNW 06:37:12 22° WSW 06:42:32 10° SSW visible
31 Jan 3.9 18:31:31 10° SSE 18:37:25 26° ESE 18:42:50 13° ENE visible
31 Jan 3.1 20:20:03 10° SW 20:27:40 74° NW 20:30:22 46° NNE visible
31 Jan 4.9 22:14:00 10° W 22:17:53 21° NW 22:17:53 21° NW visible
01 Feb 3.6 04:03:38 51° E 04:03:38 51° E 04:09:38 10° SE visible
01 Feb 3.5 05:51:09 31° W 05:52:52 35° WSW 05:59:23 10° S visible
01 Feb 2.9 19:35:16 10° SSW 19:42:49 78° ESE 19:48:04 24° NE visible
01 Feb 4.4 21:27:54 10° W 21:34:42 31° NW 21:35:34 31° NNW visible
